Location: Borowce
(50.8255°N, 19.6209°E)
Time: 17:21:11
(UTC+00:00)

NOSS 2-1 (D) - Pass Details

Date: 19 May 2025
Orbit: 378 x 1697 km, 63.3° (Epoch: 20 June)

Event Time Altitude Azimuth Distance (km) Brightness Sun altitude
Exits shadow 22:36:28 22° 265° (W) 949 4.5 -19.2°
Maximum altitude 22:38:01 38° 320° (NW) 619 4.0 -19.2°
Drops below altitude 10° 22:40:51 10° 32° (NNE) 1,402 6.2 -19.2°
Sets 22:42:55 0° 41° (NE) 2,273 7.3 -19.2°
